Total_Precipitation_Accumulation
0.03 0.03 0.04 0.05 0.06 0.07 0.08 0.11 0.14 0.13 0.07 0.02 0.02 0.03 0.06 0.13 0.23 0.26 0.24 0.15 0.09 0.05 0.03 0.02 0.01 0.01 0.01 0.01 0.01 0.01 0.02 0.05 0.11 0.15 0.17 0.18 0.18 0.19
0.05 0.05 0.05 0.05 0.05 0.06 0.07 0.09 0.14 0.19 0.16 0.06 0.02 0.04 0.08 0.14 0.27 0.30 0.32 0.29 0.20 0.12 0.07 0.04 0.02 0.02 0.02 0.01 0.01 0.02 0.04 0.07 0.12 0.17 0.24 0.27 0.25 0.27
0.03 0.03 0.03 0.03 0.04 0.05 0.07 0.08 0.10 0.15 0.17 0.08 0.04 0.04 0.08 0.15 0.22 0.24 0.25 0.24 0.21 0.19 0.11 0.07 0.06 0.04 0.02 0.01 0.02 0.05 0.09 0.14 0.18 0.23 0.31 0.39 0.40 0.36
0.02 0.03 0.03 0.04 0.04 0.04 0.06 0.07 0.09 0.13 0.18 0.14 0.06 0.03 0.05 0.10 0.15 0.16 0.17 0.18 0.19 0.23 0.16 0.09 0.06 0.05 0.08 0.05 0.03 0.07 0.14 0.24 0.31 0.35 0.40 0.45 0.46 0.41
0.03 0.04 0.05 0.05 0.04 0.05 0.06 0.08 0.10 0.12 0.15 0.15 0.07 0.04 0.08 0.15 0.21 0.21 0.18 0.20 0.20 0.20 0.16 0.11 0.06 0.07 0.30 0.37 0.15 0.13 0.18 0.31 0.38 0.42 0.50 0.52 0.46 0.39
0.03 0.05 0.07 0.07 0.07 0.08 0.09 0.10 0.12 0.12 0.10 0.10 0.07 0.05 0.09 0.15 0.18 0.25 0.25 0.20 0.19 0.13 0.15 0.12 0.11 0.18 0.57 1.12 0.60 0.28 0.25 0.31 0.37 0.42 0.47 0.46 0.40 0.33
0.03 0.06 0.07 0.07 0.10 0.10 0.09 0.09 0.10 0.11 0.11 0.11 0.09 0.07 0.09 0.14 0.18 0.19 0.20 0.23 0.20 0.14 0.17 0.16 0.29 0.61 1.12 1.80 1.39 0.76 0.54 0.46 0.41 0.42 0.44 0.43 0.38 0.29
0.04 0.05 0.03 0.02 0.03 0.03 0.05 0.07 0.10 0.12 0.14 0.15 0.13 0.11 0.09 0.12 0.16 0.19 0.19 0.22 0.19 0.12 0.12 0.20 0.48 1.19 1.87 2.27 1.92 1.20 0.91 0.71 0.58 0.60 0.62 0.54 0.41 0.30
0.04 0.03 0.01 0.01 0.01 0.01 0.03 0.06 0.10 0.16 0.20 0.22 0.20 0.13 0.11 0.12 0.16 0.21 0.18 0.18 0.20 0.13 0.09 0.17 0.56 1.39 1.82 2.13 1.98 1.35 1.08 0.91 0.80 0.82 0.81 0.61 0.41 0.30
0.02 0.02 0.02 0.01 0.02 0.03 0.05 0.11 0.13 0.15 0.20 0.23 0.21 0.16 0.14 0.14 0.14 0.15 0.13 0.16 0.15 0.09 0.07 0.21 0.63 1.27 1.48 1.55 1.70 1.36 1.12 1.02 0.96 0.92 0.85 0.63 0.44 0.34
0.01 0.01 0.02 0.01 0.03 0.06 0.09 0.14 0.17 0.24 0.37 0.48 0.41 0.30 0.27 0.23 0.14 0.09 0.10 0.14 0.16 0.10 0.07 0.20 0.52 0.94 1.12 1.16 1.23 1.23 1.14 1.09 1.03 0.97 0.85 0.62 0.46 0.38
0.01 0.01 0.02 0.03 0.05 0.07 0.11 0.17 0.25 0.35 0.52 0.64 0.47 0.33 0.27 0.24 0.21 0.12 0.14 0.21 0.19 0.09 0.07 0.15 0.33 0.55 0.79 0.97 0.88 0.79 0.85 0.97 1.01 1.01 0.90 0.65 0.41 0.28
0.01 0.02 0.03 0.08 0.07 0.08 0.15 0.25 0.38 0.47 0.57 0.64 0.44 0.27 0.21 0.17 0.18 0.21 0.20 0.17 0.10 0.05 0.04 0.09 0.23 0.34 0.45 0.66 0.80 0.74 0.64 0.66 0.73 0.86 0.89 0.74 0.46 0.25
0.05 0.07 0.10 0.13 0.09 0.12 0.23 0.38 0.49 0.56 0.53 0.50 0.35 0.23 0.16 0.17 0.19 0.17 0.12 0.06 0.03 0.02 0.03 0.07 0.18 0.30 0.31 0.35 0.55 0.65 0.62 0.60 0.60 0.65 0.69 0.67 0.51 0.39
0.08 0.15 0.17 0.13 0.15 0.23 0.39 0.53 0.56 0.55 0.49 0.39 0.31 0.23 0.13 0.11 0.11 0.10 0.06 0.03 0.02 0.03 0.04 0.06 0.13 0.25 0.26 0.23 0.31 0.39 0.49 0.58 0.57 0.59 0.59 0.54 0.45 0.37
0.06 0.13 0.16 0.16 0.25 0.40 0.53 0.57 0.59 0.60 0.52 0.38 0.30 0.22 0.13 0.09 0.07 0.05 0.04 0.04 0.05 0.08 0.07 0.07 0.11 0.18 0.23 0.21 0.22 0.27 0.31 0.47 0.55 0.54 0.53 0.50 0.45 0.38
0.07 0.09 0.10 0.14 0.27 0.41 0.52 0.55 0.55 0.57 0.53 0.40 0.31 0.23 0.16 0.11 0.09 0.06 0.05 0.06 0.07 0.08 0.09 0.09 0.12 0.16 0.20 0.21 0.22 0.25 0.27 0.32 0.39 0.39 0.36 0.34 0.31 0.26
0.09 0.13 0.17 0.23 0.31 0.41 0.50 0.57 0.55 0.49 0.45 0.40 0.34 0.27 0.20 0.14 0.12 0.11 0.09 0.08 0.09 0.09 0.08 0.08 0.07 0.09 0.12 0.15 0.14 0.14 0.15 0.18 0.21 0.22 0.18 0.15 0.11 0.08
0.11 0.18 0.27 0.33 0.38 0.43 0.46 0.48 0.51 0.48 0.41 0.35 0.31 0.27 0.22 0.16 0.13 0.12 0.10 0.08 0.07 0.06 0.05 0.04 0.03 0.01 0.02 0.06 0.07 0.06 0.06 0.07 0.08 0.08 0.07 0.05 0.03 0.01
0.15 0.24 0.32 0.36 0.40 0.44 0.44 0.41 0.43 0.43 0.37 0.29 0.24 0.21 0.19 0.16 0.14 0.11 0.07 0.04 0.03 0.03 0.03 0.02 0.01 0.00 0.00 0.01 0.02 0.01 0.01 0.02 0.02 0.02 0.02 0.01 0.01 0.00
0.16 0.26 0.32 0.35 0.35 0.36 0.37 0.36 0.36 0.35 0.31 0.25 0.21 0.19 0.17 0.15 0.12 0.08 0.04 0.02 0.01 0.01 0.01 0.01 0.00 0.00 0.00 0.00 0.00 0.00 0.00 0.00 0.00 0.00 0.00 0.00 0.00 0.00
0.15 0.24 0.31 0.32 0.29 0.26 0.25 0.26 0.26 0.25 0.23 0.20 0.18 0.16 0.14 0.12 0.09 0.05 0.03 0.02 0.01 0.01 0.00 0.00 0.00 0.00 0.00 0.00 0.00 0.00 0.00 0.00 0.00 0.00 0.00 0.00 0.00 0.00
0.14 0.18 0.24 0.27 0.27 0.23 0.20 0.17 0.17 0.17 0.16 0.14 0.12 0.11 0.10 0.09 0.07 0.04 0.03 0.01 0.00 0.00 0.00 0.01 0.01 0.00 0.00 0.00 0.00 0.00 0.00 0.00 0.00 0.00 0.00 0.00 0.00 0.00